Location: Alphen aan den Rijn
(52.1277°N, 4.6689°E)
Time: 16:40:21
(UTC+02:00)

ISS - Pass Details

Date: 03 October 2017
Orbit: 401 x 408 km, 51.6° (Epoch: 19 October)

Event Time Altitude Azimuth Distance (km) Brightness Sun altitude
Rises 22:20:02 0° 279° (W) 2,332 1.0 -28.2°
Reaches altitude 10° 22:22:08 10° 276° (W) 1,471 -0.3 -28.4°
Enters shadow 22:22:45 15° 275° (W) 1,223 -0.8 -28.5°
